User: anonymous   Login
Location: Space Photons Observatory
(33.2428°N, 111.5467°W)
Time: 20:58:45
(UTC-07:00)
Language:

RESURS DK-1 - Orbit

View from above orbital plane
View from above orbital plane
View from above satellite
View from above satellite

Ground track
Ground track

The orbit data is extracted from the following two-line orbital elements,

1 29228U 06021A   17290.83021179  .00000201  00000-0  22600-4 0  9999
2 29228  69.9343 146.0363 0004302 194.4678 165.6360 15.02225503626512
Epoch (UTC): 17 October 2017 19:55:30
Eccentricity: 0.0004302
inclination: 69.9343°
perigee height: 557 km
apogee height: 563 km
right ascension of ascending node: 146.0363°
argument of perigee: 194.4678°
revolutions per day: 15.02225503
mean anomaly at epoch: 165.6360°
orbit number at epoch: 62651

The dashed part of the orbit path shows where the satellite is in the earth's shadow,  

DLR